Location: Unspecified
(0.0000°N, 0.0000°E)
Time: 01:03:01
(UTC+00:00)

ISS - All Passes

Search period start: 16 February 2019 00:00
Search period end: 26 February 2019 00:00
Orbit: 403 x 411 km, 51.6° (Epoch: 16 February)

Date Brightness Start Highest point End Pass type
(mag) Time Alt. Az. Time Alt. Az. Time Alt. Az.
16 Feb - 06:32:37 10° SW 06:35:51 60° NW 06:39:03 10° NNE daylight
16 Feb - 18:06:49 10° NNW 18:10:05 76° NE 18:13:24 10° SE daylight
17 Feb - 05:41:21 10° SSW 05:44:28 42° SE 05:47:34 10° NE visible
17 Feb - 17:15:54 10° N 17:18:42 26° NE 17:21:31 10° ESE daylight
18 Feb - 04:50:54 10° SSE 04:53:04 16° SE 04:55:13 10° E visible
18 Feb - 06:27:31 10° W 06:29:23 14° NW 06:31:15 10° NNW daylight
18 Feb - 16:26:33 10° NE 16:27:17 11° NE 16:28:01 10° ENE daylight
18 Feb - 18:00:56 10° WNW 18:03:36 23° SW 18:06:18 10° S daylight
19 Feb - 05:34:56 10° WSW 05:37:58 36° NW 05:41:00 10° NNE visible
19 Feb - 17:08:56 10° NW 17:12:11 65° SW 17:15:28 10° SSE daylight
20 Feb - 04:43:18 10° SSW 04:46:34 71° SE 04:49:48 10° NE visible
20 Feb - 16:17:39 10° NNW 16:20:46 40° NE 16:23:54 10° SE daylight
21 Feb - 03:52:23 10° S 03:55:07 24° SE 03:57:51 10° ENE visible
21 Feb - 15:27:14 10° NNE 15:29:20 16° NE 15:31:25 10° E daylight
21 Feb - 17:03:36 10° W 17:05:39 15° SW 17:07:43 10° SSW daylight
22 Feb - 04:37:18 10° WSW 04:40:00 24° NW 04:42:40 10° N visible
22 Feb - 16:11:05 10° NW 16:14:12 39° SW 16:17:18 10° SSE daylight
23 Feb - 03:45:17 10° SW 03:48:32 69° NW 03:51:46 10° NNE night (unlit)
23 Feb - 15:19:28 10° NNW 15:22:44 67° NE 15:26:00 10° SE daylight
24 Feb - 02:54:00 10° SSW 02:57:04 38° SE 03:00:08 10° NE night (unlit)
24 Feb - 14:28:34 10° N 14:31:15 23° NE 14:33:57 10° ESE daylight
24 Feb - 16:07:00 10° WSW 16:07:36 10° SW 16:08:11 10° SW daylight
25 Feb - 02:03:36 10° SSE 02:05:34 15° SE 02:07:32 10° E night (unlit)
25 Feb - 03:39:48 10° W 03:41:54 16° NW 03:43:59 10° NNW night (unlit)
25 Feb - 15:13:18 10° WNW 15:16:04 25° SW 15:18:53 10° S daylight
